SCTB

Eulogio Sánchez Airport

Airport
ICAO code
SCTB
Summary
ICAO Region
CARSAM
ICAO Territory
Location

Santiago, Region Metropolitana

Serving
Santiago
Elevation
2129 ft
Coordinates
33° 27' 23" S , 70° 32' 48" W
KCC
Metar
SCTB 181600Z 22004KT 5000 HZ OVC110 14/02 Q1021

Also known as Tobalaba airport, Eulogio Sanchez airport is a private airport located on the eastern edge of Santiago, Chile, in La Reina.

Climatology

Cool semi-arid climate (Köppen climate classification BSk)

Runways

Designator Length Width Surface Rops
1/19 1000 30 ASP No/No

Airport map

Aerial View

SKYbrary Partners:

Safety knowledge contributed by: